Simultaneous Nadir Overpasses (SNOs) Predictions

Prediction of SNOs between GOES-16 and METOP-B Satellite Orbit:

Table of predicted SNOs for the next 14.0 days since TLE Epoch: 5/20/2023
Index Date Time (GOES-16) GOES-16 Lat,Lon METOP-B Lat,Lon Distance(km) Time Diff (sec)
1 05/20/2023 14:20:42 0.01, -75.20 -0.45, -73.13 235.35 80
2 05/22/2023 02:42:21 -0.01, -75.20 -0.55, -77.73 288.01 80
3 05/23/2023 02:19:01 -0.00, -75.21 0.57, -72.74 281.84 80
4 05/24/2023 14:40:30 -0.00, -75.22 0.46, -77.29 235.91 80
5 05/25/2023 14:17:10 -0.01, -75.23 -0.66, -72.29 334.40 80
6 05/27/2023 02:38:48 0.01, -75.24 -0.38, -76.88 187.47 80
7 05/28/2023 02:15:28 0.01, -75.25 0.75, -71.89 383.36 80
8 05/29/2023 14:36:57 -0.01, -75.28 0.28, -76.44 132.80 80
9 05/30/2023 14:13:36 -0.01, -75.30 -0.85, -71.45 438.47 80
10 06/01/2023 02:35:15 0.00, -75.32 -0.17, -76.04 82.14 80
11 06/02/2023 02:11:54 0.01, -75.34 0.96, -71.04 489.21 80
